Tracking 31027 objects as of 19-Jul-2025
HD Live streaming from Space Station
objects crossing your sky now

DIADEME 2

Track DIADEME 2 now!
10-day predictions
DIADEME 2 is classified as:


NORAD ID: 2680
Int'l Code: 1967-014A
Perigee: 585.8 km
Apogee: 1,639.7 km
Inclination: 39.4 °
Period: 107.4 minutes
Semi major axis: 7483 km
RCS: 0.6374 m2 (medium)
Launch date: February 15, 1967
Source: France (FR)
Launch site: HAMMA GUIRA SPACE TRACK RANGE (HGSTR)
Your satellite tracking list
FENGYUN 1C DEB
Track 1 satellite(s)




NASA's NSSDC Master Catalog

Two Line Element Set (TLE):
1 02680U 67014A   25199.52315505  .00000447  00000-0  20743-3 0  9990
2 02680  39.4416 143.0424 0704114 299.5662  53.6675 13.40989594831151
Source of the keplerian elements: AFSPC